Hourly Data Report for August 29, 2019

TORONTO CITY
ONTARIO
Current Station Operator: ECCC - MSC

43°40'00.000" N
79°24'00.000" W
112.50 m
6158355
71508
XTO

Download Data

Hourly Data (August 2019)
Hourly Data Report for August 29, 2019
TIME
LST
Temp Definition
°C
Dew Point Definition
°C
Rel Hum Definition
%
Precip. Amount Definition
mm

Wind Dir Definition
10's deg

Wind Spd Definition
km/h
Visibility Definition
km
Stn Press Definition
kPa
Hmdx Definition


Wind Chill Definition


Weather Definition


00:00 19.0 9.7 55 0.0       99.81     LegendNANA
01:00 18.3 10.3 60 0.0       99.82     LegendNANA
02:00 17.4 10.7 64 0.0       99.83     LegendNANA
03:00 17.3 10.7 65 0.0       99.86     LegendNANA
04:00 17.3 10.7 65 0.0       99.90     LegendNANA
05:00 16.9 11.1 69 0.0       99.93     LegendNANA
06:00 16.7 11.2 70 0.0       99.97     LegendNANA
07:00 17.2 11.5 69 0.0       99.99     LegendNANA
08:00 18.5 11.6 64 0.0       100.03     LegendNANA
09:00 19.7 11.8 61 0.0       100.07     LegendNANA
10:00 20.5 10.1 51 0.0       100.07     LegendNANA
11:00 21.6 7.8 41 0.0       100.05     LegendNANA
12:00 22.8 7.2 37 0.0       100.00     LegendNANA
13:00 23.5 7.4 36 0.0       99.96     LegendNANA
14:00 22.9 8.5 40 0.0       99.91     LegendNANA
15:00 24.3 9.3 39 0.0       99.84 25   LegendNANA
16:00 24.1 9.9 41 0.0       99.80 25   LegendNANA
17:00 23.6 11.4 46 0.0       99.79 26   LegendNANA
18:00 23.0 11.5 48 0.0       99.76 25   LegendNANA
19:00 22.4 12.3 53 0.0       99.75 25   LegendNANA
20:00 21.6 13.4 60 0.0       99.72 25   LegendNANA
21:00 21.0 14.6 67 0.0       99.71 25   LegendNANA
22:00 21.0 14.9 68 0.0       99.70 25   LegendNANA
23:00 21.6 14.5 64 0.0       99.62 25   LegendNANA

Notes on Data Quality.

Legend

  • E = Estimated
  • M = Missing
  • NA = Not Available*
  • [empty] = Indicates an unobserved value
Date modified: